Regional Weather Roundup
Issued by NWS

Home | Current Version | Previous Version | Text Only | Print | Product List | Glossary Off
Versions: 1 2 3 4 5 6 7 8 9 10 11 12 13 14 15 16 17 18 19 20 21 22 23 24 25 26 27

000
ASUS45 KBOU 282207
RWRCO

WEATHER ROUNDUP FOR COLORADO
NATIONAL WEATHER SERVICE DENVER/BOULDER CO
400 PM MDT SAT MAY 28 2016

NOTE: "FAIR" INDICATES FEW OR NO CLOUDS BELOW 12000 FEET WITH NO
SIGNIFICANT WEATHER AND/OR OBSTRUCTIONS TO VISIBILITY.

COZ001>005-013-030-031-282300-
...NORTHWEST COLORADO...

CITY           SKY/WX    TMP DP  RH WIND       PRES   REMARKS
CRAIG          FAIR      66  37  34 NW16      30.08S
HAYDEN         FAIR      66  28  24 NW9G21    30.09S
MEEKER         CLOUDY    65  35  33 S13       30.09R
MOUNT WERNER   NOT AVBL
STEAMBOAT SPGS FAIR      63  32  31 SW16      30.10S
WALDEN         FAIR      54  30  40 SW9       30.19S
$$

COZ006>008-011-282300-
...WEST CENTRAL VALLEYS...

CITY           SKY/WX    TMP DP  RH WIND       PRES   REMARKS
GRAND JUNCTION FAIR      74  33  22 VRB3G17   30.00F
MONTROSE       FAIR      73  27  18 N7        30.08F
EAGLE          MOSUNNY   66  30  26 W5        30.11F
RIFLE          FAIR      75  31  19 CALM      30.03F
DELTA          FAIR      77  25  14 S7        30.04F
NUCLA          FAIR      73  25  16 N9        30.10F
$$

COZ017>023-064>068-282300-
...SOUTHWEST COLORADO...

CITY           SKY/WX    TMP DP  RH WIND       PRES   REMARKS
DURANGO        FAIR      68  24  19 W14       30.11F
CORTEZ         FAIR      74  27  17 VRB3      30.07F
PAGOSA SPRINGS FAIR      62  28  27 NW9G18    30.19F
TELLURIDE      CLOUDY    57  27  31 E6        30.25F
WOLF CREEK PAS PTSUNNY   39  27  60 W15G22    30.42S
$$

COZ009-010-012-014-032>034-037-058>063-282300-
...CENTRAL COLORADO...

CITY           SKY/WX    TMP DP  RH WIND       PRES   REMARKS
ASPEN          LGT RAIN  57  31  37 N21G29    30.16R
BUENA VISTA    FAIR      64  19  18 S22       30.14S
COPPER MTN     NOT AVBL
BERTHOUD PASS  PTSUNNY   32  23  69 NW17      30.36S WCI  21
COTTONWOOD PAS FAIR      54  18  24 SW17G35   30.26R
GUNNISON       FAIR      64  23  20 SW15      30.16S
KREMMLING      FAIR      54  36  50 N5        30.18F
LEADVILLE      FAIR      53  19  26 W12       30.25R
MONARCH PASS   FAIR      43  21  42 W20G33    30.46S
SALIDA         FAIR      67  21  17 NW6       30.19S
SUNLIGHT       FAIR      50  30  46 CALM      30.35R
WILKERSON PASS CLOUDY    46  23  39 SW3       30.34S
$$

COZ069>075-282300-
...SAN LUIS VALLEY/SANGRE DE CRISTO MOUNTAINS...

CITY           SKY/WX    TMP DP  RH WIND       PRES   REMARKS
ALAMOSA        FAIR      58  36  43 NW29G40   30.15R
LA VETA PASS   FAIR      54  30  40 S6G17     30.30S
SAGUACHE       FAIR      63  32  31 SW20      30.17S
$$

COZ035-036-038>040-282300-
...NORTHERN COLORADO FRONT RANGE...

CITY           SKY/WX    TMP DP  RH WIND       PRES   REMARKS
DENVER INTL AP PTSUNNY   72  41  32 SE10      30.01S
DMNS CITY PARK   N/A     67  35  29 N22G30    30.01R
AURORA         PTSUNNY   69  40  34 SE10      30.02F
FRONT RANGE AP PTSUNNY   68  41  37 SE14G23   30.03S
ERIE MUNI ARPT LGT RAIN  67  42  39 N12G17    30.02S
BOULDER MUN AP FAIR      70  37  30 E7        30.01F
CENTENNIAL     FAIR      69  36  29 S9G18     30.03F
BROOMFIELD     PTSUNNY   64  46  52 NW17G30   30.05R
FORT COLLINS   FAIR      70  45  40 E7        30.01S
LONGMONT       FAIR      73  36  26 S8        30.02F
$$

COZ041-046-047-076>085-087-088-282300-
...PIKES PEAK/PALMER DIVIDE AND SOUTHERN FOOTHILLS...

CITY           SKY/WX    TMP DP  RH WIND       PRES   REMARKS
COLO. SPRINGS  PTSUNNY   62  37  39 S15       30.12R
A. F. ACADEMY  FAIR      63  37  39 S22G28    30.09S
SCHRIEVER AFB  NOT AVBL
ELLICOTT       FAIR     N/A N/A N/A SW12G30   30.08S THUNDER
FALCON         FAIR      63  37  36 S7        30.14R
FORT CARSON    FAIR      61  45  55 W12       30.08R
LIMON          FAIR      66  38  35 VRB3      30.06R
MONUMENT HILL  FAIR      59  39  47 S12       30.13F
TRINIDAD       FAIR      71  36  27 E8        30.06F
$$

COZ042>045-048>051-090-091-282300-
...NORTHEAST COLORADO...

CITY           SKY/WX    TMP DP  RH WIND       PRES   REMARKS
GREELEY ARPT   PTSUNNY   70  43  37 S12       30.00F
AKRON          FAIR      71  38  29 VRB3      30.01S
BURLINGTON     FAIR      73  40  30 W6        30.01F
WRAY           FAIR      77  43  29 W3        29.96S
STERLING       FAIR      64  48  55 CALM      29.98S
HOLYOKE        FAIR      79  45  29 W5        29.97R
FORT MORGAN    FAIR      73  39  30 S6        30.00S
$$

COZ086-089-092>099-282300-
...SOUTHEAST COLORADO...

CITY           SKY/WX    TMP DP  RH WIND       PRES   REMARKS
PUEBLO         FAIR      77  40  26 E12       30.00S
LA JUNTA       FAIR      76  35  22 VRB6      30.00F
LAMAR          FAIR      79  41  25 VRB3      29.97F
SPRINGFIELD      N/A     78  41  26 S10       30.01S
$$




USA.gov is the U.S. government's official web portal to all federal, state and local government web resources and services.